Torna al catalogo

COSMOS 2251 DEB

AttivoLEO
NORAD 35887·DEBRIS·🇷🇺 Russia

Lanciato Jun 16, 1993 da Plesetsk Cosmodrome

Loading…

Prossimi Passaggi (prossime 24 ore)

TLE

ObsoletoSource: Space-Track

Epoca: Aug 16, 2026, 03:44 UTC

1 35887U 93036AUA 26228.15558742  .00004706  00000-0  11746-2 0  9997
2 35887  73.9766  41.7043 0078923 137.3993 223.3327 14.49978614680957

Traccia COSMOS 2251 DEB in tempo reale con AllMySat

Download on the App Store